Ellensburg, WA

1:00 PM PDT on April 27, 2017 (GMT -0700)
Bowers

Weather History for KELN - November, 2012

Change the Weather History Date:

Friday, November 16, 2012

  Actual Average (KYKM) Record (KYKM)
Temperature  
Mean Temperature 40 °F -  
Max Temperature 42 °F 46 °F 63 °F (1949)
Min Temperature 39 °F 29 °F 8 °F (2014)
Degree Days  
Heating Degree Days 24    
Moisture  
Dew Point 35 °F    
Average Humidity 81    
Maximum Humidity 87    
Minimum Humidity 70    
Precipitation  
Precipitation 0.00 in - - ()
Sea Level Pressure  
Sea Level Pressure 29.96 in    
Wind  
Wind Speed 1 mph (ESE)    
Max Wind Speed 7 mph    
Max Gust Speed -    
Visibility 7 miles    
Events      
Averages and records for this station are not official NWS values.
T = Trace of Precipitation, MM = Missing Value Source: NWS Daily Summary

Daily Weather History Graph

Daily Weather History Graph

Search for Another Location

Airport or City:

Trip Planner

Search our weather history database for the weather conditions in past years. The results will help you decide how hot, cold, wet, or windy it might be!

Date:

Astronomy

Nov. 16, 2012 Rise Set
Actual Time 7:07 AM PST 4:25 PM PST
Civil Twilight 6:34 AM PST 4:59 PM PST
Nautical Twilight 5:57 AM PST 5:36 PM PST
Astronomical Twilight 5:21 AM PST 6:12 PM PST
Moon 10:10 AM PST (11/16) 7:28 PM PST (11/16)
Length of Visible Light 10h 24m
Length of Day
9h 17m
Waxing Crescent, 12% of the Moon is Illuminated
Nov 16
Waxing Crescent
Nov 20
First Quarter
Nov 28
Full
Dec 6
Last Quarter
Dec 13
New

Hourly Weather History & Observations

Time (PST) Temp. Windchill Dew Point Humidity Pressure Visibility Wind Dir Wind Speed Gust Speed Precip Events Conditions
12:04 AM 39.2 °F - 33.8 °F 81% 29.98 in 9.0 mi Calm Calm - N/A   Overcast
12:48 AM 39.2 °F - 33.8 °F 81% 29.97 in 8.0 mi Calm Calm - N/A   Overcast
12:53 AM 39.0 °F - 34.0 °F 82% 30.01 in 8.0 mi Calm Calm - N/A   Overcast
1:31 AM 39.2 °F - 33.8 °F 81% 29.97 in 8.0 mi Calm Calm - N/A   Overcast
1:53 AM 39.0 °F - 34.0 °F 82% 30.01 in 8.0 mi Calm Calm - N/A   Overcast
2:01 AM 39.2 °F - 33.8 °F 81% 29.97 in 8.0 mi Calm Calm - N/A   Overcast
2:10 AM 39.2 °F - 33.8 °F 81% 29.97 in 8.0 mi Calm Calm - N/A   Overcast
2:16 AM 39.2 °F - 33.8 °F 81% 29.97 in 7.0 mi Calm Calm - N/A   Overcast
2:53 AM 39.0 °F - 35.1 °F 86% 30.00 in 7.0 mi Calm Calm - N/A   Overcast
3:53 AM 39.0 °F - 34.0 °F 82% 29.98 in 7.0 mi Calm Calm - N/A   Overcast
4:27 AM 39.2 °F - 33.8 °F 81% 29.95 in 7.0 mi Calm Calm - N/A   Overcast
4:53 AM 39.0 °F - 34.0 °F 82% 29.98 in 7.0 mi Calm Calm - N/A   Overcast
5:45 AM 39.2 °F - 35.6 °F 87% 29.95 in 5.0 mi Calm Calm - N/A   Overcast
5:53 AM 39.0 °F - 35.1 °F 86% 29.98 in 5.0 mi Calm Calm - N/A   Overcast
6:00 AM 39.2 °F - 35.6 °F 87% 29.94 in 5.0 mi Calm Calm - N/A   Overcast
6:09 AM 39.2 °F - 35.6 °F 87% 29.94 in 5.0 mi Calm Calm - N/A   Overcast
6:53 AM 39.0 °F - 35.1 °F 86% 29.98 in 5.0 mi Calm Calm - N/A   Overcast
7:53 AM 39.0 °F - 35.1 °F 86% 29.99 in 7.0 mi Calm Calm - N/A   Overcast
8:53 AM 39.0 °F - 35.1 °F 86% 30.00 in 5.0 mi Calm Calm - N/A   Overcast
9:05 AM 39.2 °F - 35.6 °F 87% 29.97 in 5.0 mi Calm Calm - N/A   Overcast
9:53 AM 39.9 °F - 35.1 °F 83% 30.01 in 7.0 mi Calm Calm - N/A   Overcast
10:53 AM 41.0 °F - 34.0 °F 76% 29.99 in 9.0 mi Calm Calm - N/A   Overcast
11:53 AM 42.1 °F - 34.0 °F 73% 29.98 in 10.0 mi Calm Calm - N/A   Overcast
12:22 PM 42.8 °F - 33.8 °F 70% 29.94 in 10.0 mi Calm Calm - N/A   Overcast
12:53 PM 42.1 °F - 34.0 °F 73% 29.96 in 10.0 mi Calm Calm - N/A   Overcast
1:53 PM 42.1 °F - 34.0 °F 73% 29.96 in 10.0 mi Calm Calm - N/A   Overcast
2:53 PM 42.1 °F - 34.0 °F 73% 29.95 in 10.0 mi Calm Calm - N/A   Overcast
3:53 PM 42.1 °F - 33.1 °F 70% 29.95 in 10.0 mi Calm Calm - N/A   Overcast
4:23 PM 42.8 °F - 33.8 °F 70% 29.92 in 10.0 mi Calm Calm - N/A   Overcast
4:53 PM 42.1 °F - 34.0 °F 73% 29.95 in 10.0 mi Calm Calm - N/A   Overcast
5:53 PM 41.0 °F 38.0 °F 36.0 °F 82% 29.95 in 5.0 mi ESE 4.6 mph - N/A   Haze
6:53 PM 41.0 °F 37.1 °F 36.0 °F 82% 29.94 in 5.0 mi ESE 5.8 mph - N/A   Haze
7:53 PM 41.0 °F 36.4 °F 36.0 °F 82% 29.94 in 5.0 mi ESE 6.9 mph - N/A   Haze
8:17 PM 41.0 °F 37.1 °F 35.6 °F 81% 29.91 in 5.0 mi ESE 5.8 mph - N/A   Haze
8:43 PM 41.0 °F 38.0 °F 35.6 °F 81% 29.91 in 5.0 mi ESE 4.6 mph - N/A   Haze
8:53 PM 41.0 °F 36.4 °F 36.0 °F 82% 29.94 in 5.0 mi ESE 6.9 mph - N/A   Haze
9:53 PM 41.0 °F 38.0 °F 36.0 °F 82% 29.94 in 6.0 mi East 4.6 mph - N/A   Haze
10:16 PM 41.0 °F 37.1 °F 35.6 °F 81% 29.90 in 6.0 mi ESE 5.8 mph - N/A   Haze
10:53 PM 39.9 °F 36.7 °F 36.0 °F 86% 29.92 in 6.0 mi SE 4.6 mph - N/A   Overcast
11:07 PM 39.2 °F 35.9 °F 35.6 °F 87% 29.88 in 6.0 mi SSE 4.6 mph - N/A   Overcast
11:45 PM 39.2 °F - 35.6 °F 87% 29.88 in 6.0 mi Calm Calm - N/A   Mostly Cloudy
11:53 PM 39.9 °F 36.7 °F 35.1 °F 83% 29.91 in 6.0 mi NNE 4.6 mph - N/A   Haze